Time,TemperatureF,DewpointF,PressureIn,WindDirection,WindDirectionDegrees,WindSpeedMPH,WindSpeedGustMPH,Humidity,HourlyPrecipIn,Conditions,Clouds,dailyrainin,SoftwareType,DateUTC
2013-05-21 00:02:00,36.0,35.0,-100.00,NW,320,22.0,30.0,96,-99.99,,,-99.99,,2013-05-21 06:02:00,
2013-05-21 00:12:00,35.0,34.0,-100.00,NW,315,26.0,31.0,96,-99.99,,,-99.99,,2013-05-21 06:12:00,
2013-05-21 00:21:00,35.0,34.0,-100.00,NW,315,22.0,34.0,98,-99.99,,,-99.99,,2013-05-21 06:21:00,
2013-05-21 00:32:00,34.0,34.0,-100.00,NW,315,21.0,28.0,99,-99.99,,,-99.99,,2013-05-21 06:32:00,
2013-05-21 00:41:00,34.0,34.0,-100.00,NW,315,21.0,29.0,99,-99.99,,,-99.99,,2013-05-21 06:41:00,
2013-05-21 00:51:00,34.0,34.0,-100.00,NW,320,22.0,30.0,99,-99.99,,,-99.99,,2013-05-21 06:51:00,
2013-05-21 01:01:00,34.0,34.0,-100.00,NW,315,23.0,32.0,99,-99.99,,,-99.99,,2013-05-21 07:01:00,
2013-05-21 01:11:00,34.0,34.0,-100.00,NW,310,21.0,30.0,99,-99.99,,,-99.99,,2013-05-21 07:11:00,
2013-05-21 01:22:00,34.0,34.0,-100.00,NW,305,22.0,30.0,99,-99.99,,,-99.99,,2013-05-21 07:22:00,
2013-05-21 01:31:00,33.0,33.0,-100.00,NW,305,23.0,29.0,99,-99.99,,,-99.99,,2013-05-21 07:31:00,
2013-05-21 01:41:00,33.0,33.0,-100.00,NW,310,20.0,29.0,99,-99.99,,,-99.99,,2013-05-21 07:41:00,
2013-05-21 01:51:00,34.0,34.0,-100.00,NW,310,22.0,30.0,99,-99.99,,,-99.99,,2013-05-21 07:51:00,
2013-05-21 02:02:00,34.0,34.0,-100.00,NW,315,21.0,26.0,99,-99.99,,,-99.99,,2013-05-21 08:02:00,
2013-05-21 02:11:00,34.0,34.0,-100.00,NW,305,19.0,29.0,99,-99.99,,,-99.99,,2013-05-21 08:11:00,
2013-05-21 02:21:00,34.0,34.0,-100.00,NW,315,21.0,27.0,99,-99.99,,,-99.99,,2013-05-21 08:21:00,
2013-05-21 02:31:00,34.0,34.0,-100.00,NW,315,23.0,28.0,99,-99.99,,,-99.99,,2013-05-21 08:31:00,
2013-05-21 02:41:00,34.0,34.0,-100.00,NW,315,22.0,29.0,99,-99.99,,,-99.99,,2013-05-21 08:41:00,
2013-05-21 02:52:00,34.0,34.0,-100.00,NW,315,17.0,29.0,99,-99.99,,,-99.99,,2013-05-21 08:52:00,
2013-05-21 03:01:00,34.0,34.0,-100.00,NW,305,19.0,24.0,99,-99.99,,,-99.99,,2013-05-21 09:01:00,
2013-05-21 03:11:00,34.0,34.0,-100.00,NW,305,19.0,26.0,99,-99.99,,,-99.99,,2013-05-21 09:11:00,
2013-05-21 03:21:00,34.0,34.0,-100.00,NW,310,22.0,28.0,99,-99.99,,,-99.99,,2013-05-21 09:21:00,
2013-05-21 03:32:00,33.0,33.0,-100.00,WNW,300,17.0,26.0,100,-99.99,,,-99.99,,2013-05-21 09:32:00,
2013-05-21 03:42:00,33.0,33.0,-100.00,NW,315,19.0,26.0,99,-99.99,,,-99.99,,2013-05-21 09:42:00,
2013-05-21 03:52:00,33.0,33.0,-100.00,NW,310,20.0,25.0,99,-99.99,,,-99.99,,2013-05-21 09:52:00,
2013-05-21 04:02:00,33.0,33.0,-100.00,NW,320,21.0,26.0,99,-99.99,,,-99.99,,2013-05-21 10:02:00,
2013-05-21 04:12:00,33.0,33.0,-100.00,NW,315,19.0,26.0,99,-99.99,,,-99.99,,2013-05-21 10:12:00,
2013-05-21 04:22:00,33.0,33.0,-100.00,NW,315,21.0,26.0,99,-99.99,,,-99.99,,2013-05-21 10:22:00,
2013-05-21 04:32:00,33.0,33.0,-100.00,NW,315,20.0,24.0,99,-99.99,,,-99.99,,2013-05-21 10:32:00,
2013-05-21 04:42:00,33.0,33.0,-100.00,NW,315,19.0,24.0,99,-99.99,,,-99.99,,2013-05-21 10:42:00,
2013-05-21 04:52:00,33.0,33.0,-100.00,NW,305,17.0,23.0,99,-99.99,,,-99.99,,2013-05-21 10:52:00,
2013-05-21 05:02:00,33.0,32.0,-100.00,NW,310,19.0,25.0,96,-99.99,,,-99.99,,2013-05-21 11:02:00,
2013-05-21 05:11:00,33.0,32.0,-100.00,NW,315,17.0,26.0,95,-99.99,,,-99.99,,2013-05-21 11:11:00,
2013-05-21 05:21:00,33.0,31.0,-100.00,NW,310,17.0,23.0,91,-99.99,,,-99.99,,2013-05-21 11:21:00,
2013-05-21 05:32:00,33.0,31.0,-100.00,NW,315,17.0,26.0,90,-99.99,,,-99.99,,2013-05-21 11:32:00,
2013-05-21 05:41:00,33.0,30.0,-100.00,NW,310,19.0,26.0,86,-99.99,,,-99.99,,2013-05-21 11:41:00,
2013-05-21 05:51:00,33.0,29.0,-100.00,NW,305,20.0,26.0,83,-99.99,,,-99.99,,2013-05-21 11:51:00,
2013-05-21 06:01:00,33.0,29.0,-100.00,WNW,295,18.0,26.0,82,-99.99,,,-99.99,,2013-05-21 12:01:00,
2013-05-21 06:11:00,34.0,29.0,-100.00,NW,305,17.0,24.0,83,-99.99,,,-99.99,,2013-05-21 12:11:00,
2013-05-21 06:21:00,34.0,29.0,-100.00,NW,305,17.0,25.0,82,-99.99,,,-99.99,,2013-05-21 12:21:00,
2013-05-21 06:32:00,34.0,29.0,-100.00,WNW,300,18.0,23.0,81,-99.99,,,-99.99,,2013-05-21 12:32:00,
2013-05-21 06:41:00,34.0,29.0,-100.00,NW,305,15.0,24.0,81,-99.99,,,-99.99,,2013-05-21 12:41:00,
2013-05-21 06:51:00,34.0,29.0,-100.00,WNW,290,19.0,26.0,81,-99.99,,,-99.99,,2013-05-21 12:51:00,
2013-05-21 07:01:00,34.0,29.0,-100.00,WNW,285,19.0,26.0,80,-99.99,,,-99.99,,2013-05-21 13:01:00,
2013-05-21 07:12:00,34.0,29.0,-100.00,WNW,290,21.0,26.0,79,-99.99,,,-99.99,,2013-05-21 13:12:00,
2013-05-21 07:22:00,35.0,29.0,-100.00,WNW,295,19.0,26.0,77,-99.99,,,-99.99,,2013-05-21 13:22:00,
2013-05-21 07:32:00,35.0,28.0,-100.00,WNW,290,21.0,29.0,77,-99.99,,,-99.99,,2013-05-21 13:32:00,
2013-05-21 07:41:00,36.0,27.0,-100.00,WNW,300,24.0,32.0,70,-99.99,,,-99.99,,2013-05-21 13:41:00,
2013-05-21 07:52:00,36.0,27.0,-100.00,WNW,300,22.0,30.0,70,-99.99,,,-99.99,,2013-05-21 13:52:00,
2013-05-21 08:01:00,36.0,27.0,-100.00,NW,315,23.0,30.0,70,-99.99,,,-99.99,,2013-05-21 14:01:00,
2013-05-21 08:11:00,36.0,28.0,-100.00,NW,305,21.0,30.0,70,-99.99,,,-99.99,,2013-05-21 14:11:00,
2013-05-21 08:21:00,37.0,28.0,-100.00,NW,310,23.0,30.0,69,-99.99,,,-99.99,,2013-05-21 14:21:00,
2013-05-21 08:32:00,37.0,28.0,-100.00,NW,315,25.0,32.0,69,-99.99,,,-99.99,,2013-05-21 14:32:00,
2013-05-21 08:41:00,37.0,29.0,-100.00,NW,315,22.0,29.0,70,-99.99,,,-99.99,,2013-05-21 14:41:00,
2013-05-21 08:51:00,38.0,29.0,-100.00,NW,320,26.0,32.0,69,-99.99,,,-99.99,,2013-05-21 14:51:00,
2013-05-21 09:01:00,38.0,29.0,-100.00,NW,325,26.0,31.0,69,-99.99,,,-99.99,,2013-05-21 15:01:00,
2013-05-21 09:11:00,39.0,30.0,-100.00,NW,325,23.0,29.0,69,-99.99,,,-99.99,,2013-05-21 15:11:00,
2013-05-21 09:21:00,38.0,29.0,-100.00,NW,310,23.0,30.0,68,-99.99,,,-99.99,,2013-05-21 15:21:00,
2013-05-21 09:33:00,40.0,29.0,-100.00,NW,325,25.0,30.0,66,-99.99,,,-99.99,,2013-05-21 15:33:00,
2013-05-21 09:42:00,41.0,29.0,-100.00,NW,320,24.0,30.0,63,-99.99,,,-99.99,,2013-05-21 15:42:00,
2013-05-21 09:52:00,40.0,29.0,-100.00,NW,315,21.0,29.0,63,-99.99,,,-99.99,,2013-05-21 15:52:00,
2013-05-21 10:03:00,41.0,29.0,-100.00,NW,325,26.0,34.0,60,-99.99,,,-99.99,,2013-05-21 16:03:00,
2013-05-21 10:12:00,42.0,29.0,-100.00,NW,325,26.0,32.0,58,-99.99,,,-99.99,,2013-05-21 16:12:00,
2013-05-21 10:23:00,43.0,29.0,-100.00,NNW,330,26.0,32.0,58,-99.99,,,-99.99,,2013-05-21 16:23:00,
2013-05-21 10:32:00,43.0,29.0,-100.00,NW,320,21.0,29.0,58,-99.99,,,-99.99,,2013-05-21 16:32:00,
2013-05-21 10:42:00,43.0,29.0,-100.00,NW,305,17.0,25.0,58,-99.99,,,-99.99,,2013-05-21 16:42:00,
2013-05-21 10:52:00,44.0,29.0,-100.00,NW,310,17.0,29.0,56,-99.99,,,-99.99,,2013-05-21 16:52:00,
2013-05-21 11:02:00,45.0,29.0,-100.00,NW,305,16.0,30.0,54,-99.99,,,-99.99,,2013-05-21 17:02:00,
2013-05-21 11:12:00,45.0,29.0,-100.00,NW,315,21.0,27.0,52,-99.99,,,-99.99,,2013-05-21 17:12:00,
2013-05-21 11:23:00,44.0,29.0,-100.00,NW,305,18.0,26.0,53,-99.99,,,-99.99,,2013-05-21 17:23:00,
2013-05-21 11:32:00,44.0,28.0,-100.00,WNW,285,19.0,26.0,52,-99.99,,,-99.99,,2013-05-21 17:32:00,
2013-05-21 11:43:00,43.0,28.0,-100.00,WNW,300,13.0,22.0,55,-99.99,,,-99.99,,2013-05-21 17:43:00,
2013-05-21 11:52:00,43.0,28.0,-100.00,WNW,295,13.0,21.0,55,-99.99,,,-99.99,,2013-05-21 17:52:00,
2013-05-21 12:01:00,43.0,28.0,-100.00,West,280,15.0,17.0,54,-99.99,,,-99.99,,2013-05-21 18:01:00,
2013-05-21 12:12:00,43.0,27.0,-100.00,West,280,14.0,20.0,54,-99.99,,,-99.99,,2013-05-21 18:12:00,
2013-05-21 12:22:00,44.0,28.0,-100.00,WNW,290,14.0,22.0,53,-99.99,,,-99.99,,2013-05-21 18:22:00,
2013-05-21 12:32:00,45.0,28.0,-100.00,West,265,17.0,24.0,51,-99.99,,,-99.99,,2013-05-21 18:32:00,
2013-05-21 12:42:00,45.0,27.0,-100.00,WNW,295,17.0,23.0,49,-99.99,,,-99.99,,2013-05-21 18:42:00,
2013-05-21 12:51:00,46.0,27.0,-100.00,West,275,17.0,27.0,48,-99.99,,,-99.99,,2013-05-21 18:51:00,
2013-05-21 13:01:00,45.0,27.0,-100.00,WNW,290,16.0,26.0,47,-99.99,,,-99.99,,2013-05-21 19:01:00,
2013-05-21 13:11:00,46.0,26.0,-100.00,WNW,295,17.0,24.0,45,-99.99,,,-99.99,,2013-05-21 19:11:00,
2013-05-21 13:21:00,47.0,26.0,-100.00,WNW,295,21.0,27.0,43,-99.99,,,-99.99,,2013-05-21 19:21:00,
2013-05-21 13:32:00,48.0,26.0,-100.00,NW,310,21.0,29.0,41,-99.99,,,-99.99,,2013-05-21 19:32:00,
2013-05-21 13:41:00,48.0,26.0,-100.00,NW,315,22.0,32.0,42,-99.99,,,-99.99,,2013-05-21 19:41:00,
2013-05-21 13:52:00,48.0,26.0,-100.00,WNW,300,20.0,28.0,42,-99.99,,,-99.99,,2013-05-21 19:52:00,
2013-05-21 14:03:00,47.0,26.0,-100.00,WNW,295,21.0,27.0,42,-99.99,,,-99.99,,2013-05-21 20:03:00,
2013-05-21 14:11:00,48.0,26.0,-100.00,WNW,300,20.0,29.0,42,-99.99,,,-99.99,,2013-05-21 20:11:00,
2013-05-21 14:22:00,48.0,26.0,-100.00,NW,315,26.0,34.0,42,-99.99,,,-99.99,,2013-05-21 20:22:00,
2013-05-21 14:32:00,49.0,26.0,-100.00,WNW,285,18.0,29.0,41,-99.99,,,-99.99,,2013-05-21 20:32:00,
2013-05-21 14:42:00,49.0,26.0,-100.00,WNW,300,21.0,31.0,39,-99.99,,,-99.99,,2013-05-21 20:42:00,
2013-05-21 14:52:00,50.0,27.0,-100.00,WNW,295,22.0,26.0,39,-99.99,,,-99.99,,2013-05-21 20:52:00,
2013-05-21 15:02:00,48.0,26.0,-100.00,WNW,290,22.0,30.0,41,-99.99,,,-99.99,,2013-05-21 21:02:00,
2013-05-21 15:11:00,50.0,26.0,-100.00,NW,305,21.0,29.0,39,-99.99,,,-99.99,,2013-05-21 21:11:00,
2013-05-21 15:21:00,51.0,27.0,-100.00,NW,305,18.0,32.0,38,-99.99,,,-99.99,,2013-05-21 21:21:00,
2013-05-21 15:32:00,49.0,26.0,-100.00,NW,310,21.0,30.0,38,-99.99,,,-99.99,,2013-05-21 21:32:00,
2013-05-21 15:43:00,50.0,26.0,-100.00,NW,310,22.0,30.0,37,-99.99,,,-99.99,,2013-05-21 21:43:00,
2013-05-21 15:53:00,51.0,26.0,-100.00,WNW,295,21.0,30.0,37,-99.99,,,-99.99,,2013-05-21 21:53:00,
2013-05-21 16:02:00,50.0,26.0,-100.00,NW,305,14.0,27.0,37,-99.99,,,-99.99,,2013-05-21 22:02:00,
2013-05-21 16:12:00,50.0,25.0,-100.00,WNW,295,20.0,32.0,37,-99.99,,,-99.99,,2013-05-21 22:12:00,
2013-05-21 16:22:00,50.0,25.0,-100.00,NW,310,21.0,32.0,38,-99.99,,,-99.99,,2013-05-21 22:22:00,
2013-05-21 16:33:00,50.0,25.0,-100.00,NW,305,23.0,32.0,37,-99.99,,,-99.99,,2013-05-21 22:33:00,
2013-05-21 16:42:00,50.0,25.0,-100.00,NW,325,24.0,31.0,37,-99.99,,,-99.99,,2013-05-21 22:42:00,
2013-05-21 16:52:00,50.0,25.0,-100.00,NW,310,19.0,31.0,37,-99.99,,,-99.99,,2013-05-21 22:52:00,
2013-05-21 17:02:00,50.0,25.0,-100.00,NW,320,21.0,28.0,37,-99.99,,,-99.99,,2013-05-21 23:02:00,
2013-05-21 17:12:00,50.0,24.0,-100.00,NW,310,24.0,30.0,36,-99.99,,,-99.99,,2013-05-21 23:12:00,
2013-05-21 17:22:00,50.0,24.0,-100.00,NW,315,24.0,30.0,36,-99.99,,,-99.99,,2013-05-21 23:22:00,
2013-05-21 17:32:00,51.0,25.0,-100.00,WNW,300,16.0,28.0,37,-99.99,,,-99.99,,2013-05-21 23:32:00,
2013-05-21 17:42:00,51.0,25.0,-100.00,NW,305,17.0,26.0,36,-99.99,,,-99.99,,2013-05-21 23:42:00,
2013-05-21 17:52:00,51.0,24.0,-100.00,WNW,295,21.0,28.0,34,-99.99,,,-99.99,,2013-05-21 23:52:00,
2013-05-21 18:01:00,51.0,25.0,-100.00,WNW,285,19.0,29.0,35,-99.99,,,-99.99,,2013-05-22 00:01:00,
2013-05-21 18:11:00,51.0,25.0,-100.00,WNW,295,20.0,27.0,34,-99.99,,,-99.99,,2013-05-22 00:11:00,
2013-05-21 18:21:00,53.0,25.0,-100.00,WNW,285,19.0,29.0,34,-99.99,,,-99.99,,2013-05-22 00:21:00,
2013-05-21 18:32:00,52.0,24.0,-100.00,WNW,300,20.0,30.0,33,-99.99,,,-99.99,,2013-05-22 00:32:00,
2013-05-21 18:41:00,53.0,25.0,-100.00,WNW,295,17.0,30.0,33,-99.99,,,-99.99,,2013-05-22 00:41:00,
2013-05-21 18:51:00,52.0,25.0,-100.00,WNW,295,16.0,26.0,34,-99.99,,,-99.99,,2013-05-22 00:51:00,
2013-05-21 19:01:00,52.0,24.0,-100.00,WNW,285,21.0,27.0,33,-99.99,,,-99.99,,2013-05-22 01:01:00,
2013-05-21 19:11:00,51.0,24.0,-100.00,WNW,290,16.0,26.0,33,-99.99,,,-99.99,,2013-05-22 01:11:00,
2013-05-21 19:21:00,52.0,24.0,-100.00,WNW,295,17.0,26.0,33,-99.99,,,-99.99,,2013-05-22 01:21:00,
2013-05-21 19:32:00,51.0,24.0,-100.00,WNW,300,14.0,24.0,34,-99.99,,,-99.99,,2013-05-22 01:32:00,
2013-05-21 19:41:00,51.0,24.0,-100.00,WNW,290,14.0,22.0,34,-99.99,,,-99.99,,2013-05-22 01:41:00,
2013-05-21 19:52:00,50.0,24.0,-100.00,WNW,295,17.0,21.0,34,-99.99,,,-99.99,,2013-05-22 01:52:00,
2013-05-21 20:01:00,50.0,24.0,-100.00,WNW,290,12.0,19.0,36,-99.99,,,-99.99,,2013-05-22 02:01:00,
2013-05-21 20:11:00,49.0,24.0,-100.00,WNW,300,11.0,18.0,37,-99.99,,,-99.99,,2013-05-22 02:11:00,
2013-05-21 20:21:00,48.0,24.0,-100.00,WNW,300,9.0,14.0,38,-99.99,,,-99.99,,2013-05-22 02:21:00,
2013-05-21 20:32:00,47.0,24.0,-100.00,NW,305,9.0,12.0,40,-99.99,,,-99.99,,2013-05-22 02:32:00,
2013-05-21 20:41:00,47.0,25.0,-100.00,NW,310,8.0,11.0,41,-99.99,,,-99.99,,2013-05-22 02:41:00,
2013-05-21 20:51:00,45.0,25.0,-100.00,NW,305,5.0,9.0,43,-99.99,,,-99.99,,2013-05-22 02:51:00,
2013-05-21 21:01:00,44.0,25.0,-100.00,WNW,295,5.0,6.0,46,-99.99,,,-99.99,,2013-05-22 03:01:00,
2013-05-21 21:11:00,44.0,26.0,-100.00,WNW,295,6.0,6.0,47,-99.99,,,-99.99,,2013-05-22 03:11:00,
2013-05-21 21:21:00,44.0,26.0,-100.00,WNW,300,6.0,7.0,47,-99.99,,,-99.99,,2013-05-22 03:21:00,
2013-05-21 21:33:00,44.0,26.0,-100.00,NW,305,4.0,7.0,47,-99.99,,,-99.99,,2013-05-22 03:33:00,
2013-05-21 21:43:00,44.0,25.0,-100.00,WNW,290,4.0,4.0,47,-99.99,,,-99.99,,2013-05-22 03:43:00,
2013-05-21 21:53:00,44.0,26.0,-100.00,West,265,6.0,7.0,47,-99.99,,,-99.99,,2013-05-22 03:53:00,
2013-05-21 22:03:00,45.0,26.0,-100.00,West,270,6.0,7.0,46,-99.99,,,-99.99,,2013-05-22 04:03:00,
2013-05-21 22:13:00,45.0,26.0,-100.00,WSW,245,5.0,6.0,46,-99.99,,,-99.99,,2013-05-22 04:13:00,
2013-05-21 22:22:00,43.0,25.0,-100.00,NE,55,8.0,12.0,49,-99.99,,,-99.99,,2013-05-22 04:22:00,
2013-05-21 22:33:00,41.0,27.0,-100.00,NE,50,7.0,15.0,57,-99.99,,,-99.99,,2013-05-22 04:33:00,
2013-05-21 22:43:00,40.0,28.0,-100.00,NE,55,7.0,11.0,62,-99.99,,,-99.99,,2013-05-22 04:43:00,
2013-05-21 22:52:00,40.0,29.0,-100.00,NE,55,7.0,8.0,66,-99.99,,,-99.99,,2013-05-22 04:52:00,
2013-05-21 23:02:00,40.0,30.0,-100.00,NE,45,10.0,11.0,69,-99.99,,,-99.99,,2013-05-22 05:02:00,
2013-05-21 23:11:00,40.0,30.0,-100.00,NE,50,6.0,13.0,68,-99.99,,,-99.99,,2013-05-22 05:11:00,
2013-05-21 23:21:00,40.0,31.0,-100.00,NE,45,8.0,13.0,69,-99.99,,,-99.99,,2013-05-22 05:21:00,
2013-05-21 23:32:00,40.0,31.0,-100.00,ENE,60,5.0,9.0,70,-99.99,,,-99.99,,2013-05-22 05:32:00,
2013-05-21 23:42:00,39.0,31.0,-100.00,ESE,110,6.0,7.0,72,-99.99,,,-99.99,,2013-05-22 05:42:00,
2013-05-21 23:51:00,38.0,31.0,-100.00,SSE,155,2.0,7.0,75,-99.99,,,-99.99,,2013-05-22 05:51:00,